Texarkana, AR

10:24 AM CDT on August 26, 2016 (GMT -0500)
Texarkana Regional-Webb

Weather History for KTXK - March, 2014

Change the Weather History Date:

Friday, March 28, 2014

  Actual Average Record
Temperature  
Mean Temperature 70 °F 59 °F  
Max Temperature 81 °F 71 °F 87 °F (1907)
Min Temperature 58 °F 47 °F 26 °F (1931)
Degree Days  
Heating Degree Days 0 7  
Month to date heating degree days 377 281  
Since 1 July heating degree days 2845 2475  
Cooling Degree Days 5 1  
Month to date cooling degree days 7 16  
Year to date cooling degree days 7 20  
Growing Degree Days 20 (Base 50)    
Moisture  
Dew Point 62 °F    
Average Humidity 76    
Maximum Humidity 100    
Minimum Humidity 51    
Precipitation  
Precipitation 0.53 in 0.13 in 1.53 in (1989)
Month to date precipitation 3.26 3.79  
Year to date precipitation 7.18 11.18  
Snow  
Snow 0.00 in - - ()
Month to date snowfall T  
Since 1 July snowfall 1.7  
Snow Depth 0.00 in    
Sea Level Pressure  
Sea Level Pressure 29.82 in    
Wind  
Wind Speed 7 mph (SE)    
Max Wind Speed 33 mph    
Max Gust Speed 49 mph    
Visibility 5 miles    
Events Rain    
T = Trace of Precipitation, MM = Missing Value Source: NWS Daily Summary

Daily Weather History Graph

Daily Weather History Graph

Search for Another Location

Airport or City:

Trip Planner

Search our weather history database for the weather conditions in past years. The results will help you decide how hot, cold, wet, or windy it might be!

Date:

Astronomy

Mar. 28, 2014 Rise Set
Actual Time 7:08 AM CDT 7:33 PM CDT
Civil Twilight 6:44 AM CDT 7:58 PM CDT
Nautical Twilight 6:14 AM CDT 8:27 PM CDT
Astronomical Twilight 5:45 AM CDT 8:57 PM CDT
Moon 5:33 AM CDT (3/28) 5:36 PM CDT (3/28)
Length of Visible Light 13h 14m
Length of Day
12h 24m
Waning Crescent, 6% of the Moon is Illuminated
Mar 28
Waning Crescent
Mar 30
New
Apr 7
First Quarter
Apr 15
Full
Apr 22
Last Quarter

Hourly Weather History & Observations

Time (CDT) Temp. Heat Index Dew Point Humidity Pressure Visibility Wind Dir Wind Speed Gust Speed Precip Events Conditions
12:49 AM 64.4 °F - 62.6 °F 94% 29.80 in 7.0 mi SE 3.5 mph - N/A   Overcast
12:53 AM 64.0 °F - 62.1 °F 93% 29.80 in 7.0 mi Calm Calm - N/A   Overcast
1:41 AM 64.4 °F - 62.6 °F 94% 29.80 in 6.0 mi SE 5.8 mph - N/A   Overcast
1:53 AM 64.0 °F - 62.1 °F 93% 29.79 in 6.0 mi SE 5.8 mph - N/A   Overcast
2:08 AM 64.4 °F - 62.6 °F 94% 29.80 in 6.0 mi SE 6.9 mph - N/A   Overcast
2:37 AM 64.4 °F - 62.6 °F 94% 29.79 in 6.0 mi SE 4.6 mph - N/A   Overcast
2:53 AM 64.0 °F - 63.0 °F 96% 29.78 in 5.0 mi SE 4.6 mph - N/A   Overcast
3:10 AM 64.4 °F - 62.6 °F 94% 29.79 in 5.0 mi SE 5.8 mph - N/A   Overcast
3:19 AM 64.4 °F - 62.6 °F 94% 29.78 in 5.0 mi SE 8.1 mph - N/A   Overcast
3:53 AM 64.0 °F - 63.0 °F 96% 29.78 in 5.0 mi Calm Calm - N/A   Overcast
4:25 AM 62.6 °F - 62.6 °F 100% 29.79 in 2.0 mi East 3.5 mph - N/A   Overcast
4:36 AM 62.6 °F - 62.6 °F 100% 29.79 in 1.8 mi ENE 4.6 mph - N/A   Overcast
4:50 AM 62.6 °F - 62.6 °F 100% 29.80 in 0.8 mi ENE 4.6 mph - N/A   Overcast
4:53 AM 63.0 °F - 62.1 °F 97% 29.79 in 0.8 mi ENE 4.6 mph - N/A   Mist
5:40 AM 62.6 °F - 62.6 °F 100% 29.81 in 1.0 mi East 4.6 mph - N/A   Mist
5:53 AM 63.0 °F - 62.1 °F 97% 29.81 in 1.0 mi ESE 5.8 mph - N/A   Mist
6:17 AM 62.6 °F - 62.6 °F 100% 29.82 in 1.5 mi ESE 5.8 mph - N/A   Overcast
6:26 AM 62.6 °F - 62.6 °F 100% 29.82 in 1.2 mi ESE 5.8 mph - N/A   Overcast
6:37 AM 62.6 °F - 62.6 °F 100% 29.83 in 1.8 mi ESE 4.6 mph - N/A   Overcast
6:46 AM 62.6 °F - 62.6 °F 100% 29.83 in 2.0 mi SE 4.6 mph - N/A   Overcast
6:53 AM 63.0 °F - 62.1 °F 97% 29.83 in 3.0 mi ESE 4.6 mph - N/A   Overcast
7:53 AM 63.0 °F - 62.1 °F 97% 29.86 in 4.0 mi SSE 8.1 mph - N/A   Overcast
8:53 AM 64.0 °F - 63.0 °F 96% 29.87 in 3.0 mi SE 8.1 mph - 0.00 in   Overcast
9:53 AM 66.0 °F - 64.0 °F 93% 29.87 in 10.0 mi SE 8.1 mph - 0.00 in   Overcast
10:53 AM 70.0 °F - 64.9 °F 84% 29.86 in 10.0 mi SSE 10.4 mph - N/A   Overcast
11:53 AM 73.9 °F - 64.9 °F 73% 29.86 in 10.0 mi SSW 8.1 mph - N/A   Overcast
12:53 PM 72.0 °F - 64.9 °F 78% 29.85 in 6.0 mi SW 5.8 mph - 0.01 in Rain Light Rain
1:53 PM 75.9 °F - 66.0 °F 71% 29.83 in 9.0 mi South 6.9 mph - 0.00 in   Partly Cloudy
2:53 PM 80.1 °F 81.7 °F 64.0 °F 58% 29.78 in 10.0 mi SSE 9.2 mph - N/A   Clear
3:46 PM 80.6 °F 81.5 °F 60.8 °F 51% 29.78 in 10.0 mi SW 10.4 mph - N/A   Mostly Cloudy
3:53 PM 80.1 °F 80.9 °F 60.1 °F 50% 29.76 in 10.0 mi SSW 6.9 mph - N/A   Scattered Clouds
4:53 PM 73.0 °F - 63.0 °F 71% 29.74 in 10.0 mi North 11.5 mph 21.9 mph N/A   Mostly Cloudy
5:26 PM 64.4 °F - 57.2 °F 77% 29.83 in 1.8 mi West 15.0 mph 39.1 mph 0.15 in Rain Heavy Rain
5:38 PM 60.8 °F - 57.2 °F 88% 29.87 in 2.5 mi South 8.1 mph 21.9 mph 0.27 in Rain Heavy Rain
5:53 PM 61.0 °F - 57.9 °F 90% 29.83 in 2.0 mi WNW 9.2 mph - 0.41 in Rain Heavy Rain
6:08 PM 62.6 °F - 59.0 °F 88% 29.83 in 6.0 mi SW 5.8 mph - 0.04 in Rain Light Rain
6:31 PM 64.4 °F - 57.2 °F 77% 29.78 in 10.0 mi North 10.4 mph - 0.06 in Rain Light Rain
6:53 PM 63.0 °F - 61.0 °F 93% 29.79 in 8.0 mi North 13.8 mph - 0.06 in   Scattered Clouds
7:53 PM 63.0 °F - 59.0 °F 87% 29.84 in 6.0 mi SSE 3.5 mph - 0.02 in Rain Light Rain
8:53 PM 61.0 °F - 59.0 °F 93% 29.84 in 8.0 mi ESE 4.6 mph - 0.03 in   Clear
9:53 PM 60.1 °F - 59.0 °F 96% 29.84 in 7.0 mi NW 3.5 mph - N/A   Unknown
10:53 PM 60.1 °F - 59.0 °F 96% 29.92 in 5.0 mi Variable 3.5 mph - N/A   Mist
11:53 PM 61.0 °F - 57.9 °F 90% 29.94 in 4.0 mi NE 12.7 mph 18.4 mph N/A   Mist